Location: Beekmeers
(50.8953°N, 3.6968°E)
Time: 05:00:40
(UTC+00:00)

Tiangong - Visible Passes

Search period start: 15 January 2026 00:00
Search period end: 25 January 2026 00:00
Orbit: 378 x 394 km, 41.5° (Epoch: 14 January)

Date Brightness Start Highest point End Pass type
(mag) Time Alt. Az. Time Alt. Az. Time Alt. Az.
18 Jan 0.9 06:48:48 10° S 06:50:08 12° SSE 06:51:29 10° SE visible
20 Jan 0.6 06:26:21 10° SSW 06:28:09 14° S 06:29:58 10° SE visible
21 Jan 0.7 05:27:57 11° S 05:29:06 12° SSE 05:30:27 10° SE visible
22 Jan 0.4 06:04:07 10° SW 06:06:06 15° S 06:08:05 10° SE visible
23 Jan 0.5 05:07:17 14° SSE 05:07:17 14° SSE 05:08:46 10° SE visible
23 Jan 0.5 06:41:19 10° SW 06:43:05 14° S 06:44:52 10° SSE visible
24 Jan 0.2 05:42:58 14° SSW 05:43:57 15° S 05:45:54 10° SE visible
